Regional Weather Roundup
Issued by NWS Charleston, SC

Current Version | Previous Version | Text Only | Print | Product List | Glossary Off
Versions: 1 2 3 4 5 6 7 8 9 10 11 12 13 14 15 16 17 18 19 20 21 22 23 24 25 26 27 28 29 30 31 32 33 34 35 36 37 38 39 40 41 42 43 44 45 46 47 48 49 50

000
ASUS42 KCHS 020512
RWRCHS

REGIONAL WEATHER ROUNDUP
NATIONAL WEATHER SERVICE CHARLESTON SC
100 AM EDT WED SEP 02 2015

NOTE: "FAIR" INDICATES FEW OR NO CLOUDS BELOW 12,000 FEET WITH NO
SIGNIFICANT WEATHER AND/OR OBSTRUCTIONS TO VISIBILITY.

NOT ALL STATIONS ARE QUALITY CONTROLLED BY THE NATIONAL
WEATHER SERVICE. USE DATA WITH CAUTION...ESPECIALLY
DEWPOINT OBSERVATIONS.

SCZ027-030-031-034>040-042>050-020600-
...SOUTHEAST SOUTH CAROLINA...

CITY           SKY/WX    TMP DP  RH WIND       PRES   REMARKS
N CHARLESTON   MOCLDY    78  74  87 CALM      30.09S
WATERFRONT PRK   N/A     81  77  88 VRB2      30.06S
MOUNT PLEASANT LGT RAIN  75  75 100 CALM      30.09S
JOHNS ISLAND   FAIR      77  75  94 CALM      30.09S
PINOPOLIS        N/A     81  75  83 VRB2      30.00S
MONCKS CORNER  FAIR      75  72  88 CALM      30.09S
SUMMERVILLE    FAIR      73  73 100 CALM      30.10S
BEAUFORT MCAS  MOCLDY    78  75  90 CALM      30.08F
BEAUFORT ARPT  FAIR      79  79 100 CALM      30.08S
HILTON HEAD IS MOCLDY    79  77  94 CALM      30.10R
WALTERBORO     MOCLDY    77  73  88 CALM      30.10S
ALLENDALE      FAIR      77  75  94 CALM      30.08F

...SOUTHERN MIDLANDS AND PEE DEE...

CITY           SKY/WX    TMP DP  RH WIND       PRES   REMARKS
GEORGETOWN     NOT AVBL
KINGSTREE      NOT AVBL
ORANGEBURG     CLEAR     74  72  93 S3        30.10S
BARNWELL       FAIR      75  73  94 CALM      30.10F
AIKEN          FAIR      72  68  88 CALM      30.14R
MANNING        FAIR      77  73  88 SW3       30.09S
COLUMBIA       PTCLDY    76  69  79 CALM      30.09R
SUMTER         PTCLDY    76  72  87 S5        30.07S
FLORENCE       CLEAR     76  73  91 SW3       30.08S
MYRTLE BEACH   CLOUDY    77  70  78 CALM      30.10F
N MYRTLE BEACH MOCLDY    76  73  91 CALM      30.07F

$$

GAZ063-065-086>088-099>101-113>116-118-119-134>141-150-020600-
...SOUTHEAST GEORGIA...

CITY           SKY/WX    TMP DP  RH WIND       PRES   REMARKS
SAVANNAH ARPT  PTCLDY    78  75  90 CALM      30.09F
HUNTER AAF     PTCLDY    77  77 100 N1        30.06F
FORT STEWART   PTCLDY    76  74  93 CALM      30.07F
STATESBORO     MOCLDY    77  77 100 CALM      30.09S
SYLVANIA       CLOUDY    78  77  98 CALM      30.10F
CLAXTON        NOT AVBL

...CSRA...CENTRAL AND FAR SOUTHEAST GEORGIA...

CITY           SKY/WX    TMP DP  RH WIND       PRES   REMARKS
THOMSON        CLEAR     72  72 100 CALM      30.14S
AUGUSTA-BUSH   CLEAR     71  71 100 E3        30.09R FOG
AUGUSTA-DANIEL CLEAR     78  70  76 SW3       30.10S
SWAINSBORO     CLOUDY   N/A N/A N/A S3        30.10F
VIDALIA        CLOUDY    77  75  94 CALM      30.09F
EASTMAN        FOG       73  73 100 CALM      30.12S VSB 1/2
HAZLEHURST     FAIR      78  78 100 CALM      30.08S
ALMA           PTCLDY    76  75  97 SE5       30.09S
WAYCROSS       PTCLDY    79  79 100 SE3       30.08F
JESUP          FAIR      77  77 100 CALM      30.09S
BAXLEY         FAIR      79  77  94 CALM      30.08S
BRUNSWICK        N/A     72  72 100 CALM      30.09S
SAINT SIMONS   PTCLDY    79  77  94 CALM      30.08F

$$

SCZ027-028-034-036>038-045-046-048>050-GAZ119-141-020600-
...LAKE AND SUPPLEMENTAL COASTAL OBSERVATIONS...

STATION/POSITION TIME  TEMP    WIND        PRES    WAVE   SWELL
                       AIR SEA DIR/SP/G            HT/PER HT/PER/DIR
                 (UTC) (F)     (DEG/KT/KT) (MB)    (FT/S) (FT/S/D)
UPR LAKE MARION  NOT AVBL
WINYAH BAY       NOT AVBL
LAKE MURRAY      0400   79      CALM  /  1 1018.3R
ACE BASIN NERRS  NOT AVBL
FORT PULASKI     0400   81 83  150/  5/  8 1019.2F
SAPELO ISLAND    0400   78     120/  2     1019.0S

$$

ANZ835-935-AMZ111-154-330-350-352-354-370-450-454-472-020600-
...C-MAN AND BUOY OBSERVATIONS...

STATION/POSITION TIME  TEMP    WIND        PRES    WAVE   SWELL
                       AIR SEA DIR/SP/G            HT/PER HT/PER/DIR
                 (UTC) (F)     (DEG/KT/KT) (MB)    (FT/S) (FT/S/D)
BUOY 41004       0450   83 83  180/  8/ 10 1018.2F   2/ 8   2/ 8
BUOY 41008       0450   82 84  180/  6/  8 1018.9F   2/ 8   2/120/ 8
FOLLY BEACH CMAN 0400   81     190/  8/  9 1018.9R
CAPERS NEARSHORE 0408   82     200/  8/ 10 1018.9R
FRIPP NEARSHORE  0400   82     180/ 10/ 12 1018.1F


STATION/POSITION TIME  TEMP    WIND        PRES    WAVE   SWELL
                       AIR SEA DIR/SP/G            HT/PER HT/PER/DIR
                 (UTC) (F)     (DEG/KT/KT) (MB)    (FT/S) (FT/S/D)
5E ST. MARYS GA  0421      85                N/A     2/10
FRYING PAN BUOY  0450   82 81  240/  4/  6 1019.0F   1/10   2/100/10
BUOY 41025       0450   80 83  280/  6/  8 1018.0S   2/ 8   2/110/ 8
CAPE LOOKOUT NC  0400   79     270/  8/  9 1018.0R
BUOY 41002       0450   84 84  270/  8/ 12 1018.3F   3/ 5   3/240/ 5
BUOY 41010       0420   84 86  130/  6/  8 1018.9F
ST AUGUSTINE FL  0500   83 83  140/  6/  6 1019.4F


$$


USA.gov is the U.S. government's official web portal to all federal, state and local government web resources and services.